Location: Gradaro
(45.0833°N, 10.8833°E)
Time: 09:16:27
(UTC+00:00)

Cosmos 1844 Rocket - Pass Details

Date: 29 November 2020
Orbit: 824 x 845 km, 71.0° (Epoch: 24 January)

Event Time Altitude Azimuth Distance (km) Brightness Sun altitude
Rises 05:53:12 0° 235° (SW) 3,381 5.5 -7.0°
Reaches altitude 10° 05:55:55 10° 246° (WSW) 2,453 4.7 -6.6°
Maximum altitude 06:00:52 31° 308° (NW) 1,448 3.4 -5.8°
Drops below altitude 10° 06:05:52 10° 9° (N) 2,474 5.0 -5.0°
Sets 06:08:37 0° 20° (NNE) 3,414 5.8 -4.6°
